DW1188 Weather Reports


time (UTC)temp
C
wind
direction
speed
KPH
gust
KPH
rain 1hr
cm
rain 24hr
cm
rain mn
cm
humidity
%
barometer
mb
20260504141327 11 123 0.0 0.0 0.00 0.00 0.00 77 1010.3
20260504140157 10 118 0.0 0.0 0.00 0.00 0.00 77 1010.2
20260504130106 9 112 0.0 0.0 0.00 0.00 0.00 80 1009.7
20260504044744 17 146 0.0 0.0 0.00 0.00 0.00 47 1009.5
20260504043530 18 144 0.0 9.7 0.00 0.00 0.00 45 1009.5
20260504042341 18 136 0.0 8.0 0.00 0.00 0.00 43 1009.4
20260504041145 19 142 0.0 8.0 0.00 0.00 0.00 39 1009.4
20260504035919 20 121 0.0 0.0 0.00 0.00 0.00 38 1009.4
20260504034651 20 132 0.0 0.0 0.00 0.00 0.00 34 1009.3
20260504033511 21 132 0.0 0.0 0.00 0.00 0.00 32 1009.2
20260504032319 21 140 0.0 0.0 0.00 0.00 0.00 30 1009.1
20260504031142 22 252 0.0 0.0 0.00 0.00 0.00 32 1009.0
20260504025908 22 252 0.0 0.0 0.00 0.00 0.00 33 1009.0
20260504024641 23 252 0.0 0.0 0.00 0.00 0.00 29 1009.0
20260504023404 24 250 0.0 0.0 0.00 0.00 0.00 28 1009.0
20260504022128 24 263 0.0 0.0 0.00 0.00 0.00 27 1009.1
20260504020905 25 260 0.0 0.0 0.00 0.00 0.00 26 1009.2
20260504015625 25 279 0.0 0.0 0.00 0.00 0.00 25 1009.3
20260504014433 25 281 0.0 0.0 0.00 0.00 0.00 25 1009.4
20260504011859 25 267 0.0 0.0 0.00 0.00 0.00 25 1009.5
20260504005311 25 224 0.0 0.0 0.00 0.00 0.00 24 1009.7
20260504004053 25 237 0.0 0.0 0.00 0.00 0.00 24 1009.9
20260504002903 25 236 1.6 0.0 0.00 0.00 0.00 22 1010.0
20260504001719 25 199 1.6 16.1 0.00 0.00 0.00 24 1010.1
20260504000532 25 215 1.6 4.8 0.00 0.00 0.00 22 1010.2
20260503235253 25 214 0.0 16.1 0.00 0.00 0.00 22 1010.4
20260503234016 24 229 1.6 14.5 0.00 0.00 0.00 21 1010.5
20260503232758 24 213 0.0 11.3 0.00 0.00 0.00 24 1010.6
20260503231618 24 244 0.0 0.0 0.00 0.00 0.00 23 1010.9
20260503230436 24 203 0.0 14.5 0.00 0.00 0.00 24 1011.0
20260503223924 24 305 0.0 0.0 0.00 0.00 0.00 23 1011.4
20260503222722 24 257 0.0 4.8 0.00 0.00 0.00 23 1011.6
20260503221532 23 273 0.0 0.0 0.00 0.00 0.00 25 1011.6
20260503220317 23 216 1.6 17.7 0.00 0.00 0.00 25 1011.8
20260503215049 23 163 0.0 11.3 0.00 0.00 0.00 24 1012.1
20260503212537 23 140 0.0 0.0 0.00 0.00 0.00 28 1012.4
20260503211400 23 229 0.0 14.5 0.00 0.00 0.00 28 1012.6
20260503204808 22 242 0.0 0.0 0.00 0.00 0.00 33 1013.1
20260503203608 22 318 0.0 4.8 0.00 0.00 0.00 32 1013.2
20260503202346 22 317 0.0 1.6 0.00 0.00 0.00 36 1013.4
20260503201129 22 232 0.0 0.0 0.00 0.00 0.00 33 1013.5
20260503195933 22 234 0.0 9.7 0.00 0.00 0.00 35 1013.7
20260503194717 21 275 0.0 0.0 0.00 0.00 0.00 35 1013.8
20260503193502 21 199 0.0 8.0 0.00 0.00 0.00 34 1013.9
20260503192314 21 268 0.0 0.0 0.00 0.00 0.00 34 1014.1
20260503191059 21 334 0.0 0.0 0.00 0.00 0.00 37 1014.2
20260503184543 20 312 0.0 0.0 0.00 0.00 0.00 36 1014.3
20260503183337 20 259 0.0 0.0 0.00 0.00 0.00 36 1014.4
20260503182057 20 337 0.0 0.0 0.00 0.00 0.00 38 1014.6
20260503180832 20 333 0.0 0.0 0.00 0.00 0.00 40 1014.7
20260503175702 19 282 0.0 0.0 0.00 0.00 0.00 39 1014.8
20260503174454 18 42 0.0 0.0 0.00 0.00 0.00 42 1014.9
20260503173235 18 336 0.0 0.0 0.00 0.00 0.00 44 1014.9
20260503172027 18 355 0.0 0.0 0.00 0.00 0.00 48 1015.0
20260503170747 18 25 0.0 0.0 0.00 0.00 0.00 49 1015.2
20260503150447 13 120 0.0 0.0 0.00 0.00 0.00 70 1016.1